Location: Fort Worth, Tx
(32.7431°N, 97.3695°W)
Time: 04:59:55
(UTC-05:00)

Vanguard 1 Rocket - Visible Passes

Search period start: 23 February 2024 00:00
Search period end: 04 March 2024 00:00
Orbit: 654 x 4218 km, 34.3° (Epoch: 22 February)

Date Brightness Start Highest point End Pass type
(mag) Time Alt. Az. Time Alt. Az. Time Alt. Az.
23 Feb 11.5 05:55:51 10° S 06:14:07 27° SE 06:27:20 10° E visible
24 Feb 11.8 04:45:56 10° S 04:59:21 17° SE 05:10:42 10° ESE visible
24 Feb 10.9 07:08:12 10° SSW 07:30:11 45° SSE 07:43:32 10° E visible
25 Feb 11.3 05:54:44 10° SSW 06:15:38 34° SE 06:30:19 10° E visible
26 Feb 11.6 04:43:18 10° S 05:00:51 23° SE 05:15:11 10° E visible
26 Feb 10.7 07:08:15 10° SW 07:31:43 54° SSE 07:45:44 10° E visible
27 Feb 11.9 03:36:18 10° SSE 03:46:01 13° SE 03:55:08 10° ESE visible
27 Feb 11.1 05:54:10 10° SSW 06:17:01 42° SE 06:32:51 10° E visible
28 Feb 11.4 04:41:50 10° S 05:02:09 30° SE 05:18:31 10° E visible
28 Feb 10.6 07:08:37 10° SW 07:33:11 63° SSE 07:47:48 10° ENE visible
29 Feb 11.7 03:32:11 10° S 03:47:21 19° SE 04:01:17 10° E visible
29 Feb 10.9 05:54:03 10° SSW 06:18:19 50° SSE 06:35:05 10° ENE visible
01 Mar 11.2 04:42:52 13° SSW 05:03:18 37° SE 05:21:13 10° E visible
01 Mar 10.5 07:09:15 10° SW 07:34:36 71° SSE 07:49:46 10° ENE visible
02 Mar 11.5 03:36:24 18° SSE 03:48:27 25° SE 04:05:17 10° E visible
02 Mar 10.7 05:54:18 10° SW 06:19:33 58° SSE 06:37:08 10° ENE visible
03 Mar 11.7 02:29:43 13° SE 02:33:55 14° SE 02:44:25 10° ESE visible
03 Mar 11.0 04:47:02 21° SSW 05:04:21 45° SE 05:23:32 10° ENE visible
03 Mar 10.4 07:10:09 10° WSW 07:36:03 78° SSE 07:51:41 10° ENE visible
